Weather History for KTUS - November, 2012

Change the Weather History Date:

Friday, November 9, 2012

  Actual Average Record
Temperature  
Mean Temperature 70 °F 62 °F  
Max Temperature 79 °F 76 °F 92 °F (1906)
Min Temperature 60 °F 48 °F 29 °F (1918)
Degree Days  
Heating Degree Days 0 4  
Month to date heating degree days 0 29  
Since 1 July heating degree days 2 53  
Cooling Degree Days 5 1  
Month to date cooling degree days 50 18  
Year to date cooling degree days 3583 3137  
Growing Degree Days 20 (Base 50)    
Moisture  
Dew Point 49 °F    
Average Humidity 50    
Maximum Humidity 67    
Minimum Humidity 32    
Precipitation  
Precipitation 0.02 in 0.02 in 0.45 in (1969)
Month to date precipitation 0.02 0.16  
Year to date precipitation 6.72 10.25  
Snow  
Snow 0.00 in - - ()
Month to date snowfall 0.0  
Snow Depth 0.00 in    
Sea Level Pressure  
Sea Level Pressure 29.79 in    
Wind  
Wind Speed 11 mph (SW)    
Max Wind Speed 28 mph    
Max Gust Speed 37 mph    
Visibility 10 miles    
Events Rain    
T = Trace of Precipitation, MM = Missing Value Source: NWS Daily Summary

Daily Weather History Graph

Daily Weather History Graph

Search for Another Location

Airport or City:

Trip Planner

Search our weather history database for the weather conditions in past years. The results will help you decide how hot, cold, wet, or windy it might be!

Date:

Astronomy

Nov. 09, 2012 Rise Set
Actual Time 6:47 AM MST 5:27 PM MST
Civil Twilight 6:22 AM MST 5:52 PM MST
Nautical Twilight 5:52 AM MST 6:22 PM MST
Astronomical Twilight 5:24 AM MST 6:50 PM MST
Moon 2:06 AM MST (11/9) 2:28 PM MST (11/9)
Length of Visible Light 11h 30m
Length of Day
10h 39m
Waning Crescent, 22% of the Moon is Illuminated
Nov 9
Waning Crescent
Nov 13
New
Nov 20
First Quarter
Nov 28
Full
Dec 6
Last Quarter

Hourly Weather History & Observations

Time (MST) Temp. Dew Point Humidity Pressure Visibility Wind Dir Wind Speed Gust Speed Precip Events Conditions
12:53 AM 68.0 °F 45.0 °F 43% 29.84 in 10.0 mi South 9.2 mph - N/A   Scattered Clouds
1:53 AM 68.0 °F 45.0 °F 43% 29.84 in 10.0 mi SSW 8.1 mph - N/A   Scattered Clouds
2:53 AM 66.9 °F 48.9 °F 52% 29.86 in 10.0 mi SW 8.1 mph - 0.00 in Rain Light Rain
3:53 AM 64.0 °F 54.0 °F 70% 29.86 in 10.0 mi Calm Calm - 0.01 in Rain Light Rain
4:53 AM 60.1 °F 55.0 °F 83% 29.85 in 10.0 mi East 11.5 mph - 0.01 in   Partly Cloudy
5:53 AM 60.1 °F 55.0 °F 83% 29.86 in 10.0 mi East 5.8 mph - 0.00 in Rain Light Rain
6:53 AM 61.0 °F 54.0 °F 78% 29.86 in 10.0 mi Calm Calm - 0.00 in   Overcast
7:53 AM 64.0 °F 54.0 °F 70% 29.86 in 10.0 mi Calm Calm - N/A   Scattered Clouds
8:53 AM 66.0 °F 52.0 °F 60% 29.86 in 10.0 mi South 5.8 mph - N/A   Scattered Clouds
9:53 AM 72.0 °F 48.9 °F 44% 29.84 in 10.0 mi South 16.1 mph 21.9 mph N/A   Clear
10:53 AM 73.0 °F 48.0 °F 41% 29.83 in 10.0 mi South 13.8 mph 23.0 mph N/A   Scattered Clouds
11:53 AM 75.0 °F 48.0 °F 38% 29.79 in 10.0 mi South 13.8 mph 19.6 mph N/A   Overcast
12:53 PM 78.1 °F 46.9 °F 33% 29.74 in 10.0 mi SSW 17.3 mph 28.8 mph N/A   Overcast
1:53 PM 77.0 °F 46.9 °F 34% 29.71 in 10.0 mi SW 17.3 mph 25.3 mph N/A   Mostly Cloudy
2:53 PM 77.0 °F 48.0 °F 36% 29.71 in 10.0 mi SW 20.7 mph 35.7 mph N/A   Scattered Clouds
3:53 PM 75.9 °F 46.9 °F 36% 29.70 in 10.0 mi SW 21.9 mph 32.2 mph N/A   Scattered Clouds
4:53 PM 73.9 °F 46.9 °F 38% 29.71 in 10.0 mi SW 17.3 mph 27.6 mph N/A   Partly Cloudy
5:53 PM 71.1 °F 46.9 °F 42% 29.72 in 10.0 mi WSW 12.7 mph - N/A   Clear
6:53 PM 68.0 °F 46.9 °F 47% 29.75 in 10.0 mi West 9.2 mph - N/A   Scattered Clouds
7:53 PM 66.0 °F 46.9 °F 50% 29.76 in 10.0 mi West 6.9 mph - N/A   Partly Cloudy
8:53 PM 64.0 °F 46.0 °F 52% 29.77 in 10.0 mi WNW 9.2 mph - N/A   Partly Cloudy
9:53 PM 63.0 °F 46.9 °F 56% 29.78 in 10.0 mi West 11.5 mph - N/A   Overcast
10:53 PM 62.1 °F 48.0 °F 60% 29.78 in 10.0 mi West 9.2 mph - N/A   Overcast
11:53 PM 62.1 °F 48.0 °F 60% 29.78 in 10.0 mi South 8.1 mph - N/A   Scattered Clouds